EW8181 Weather Reports


time (UTC)temp
F
wind
direction
speed
knots
gust
knots
rain 1hr
in
rain 24hr
in
rain mn
in
humidity
%
barometer
mb
20260503053037 75 207 0.0 0.9 0.00 0.00 0.00 86 1012.6
20260503051503 75 217 0.0 1.7 0.00 0.00 0.00 86 1012.9
20260503050036 76 209 0.9 3.5 0.00 0.00 0.00 85 1013.1
20260503044509 76 255 0.0 2.6 0.00 0.00 0.00 85 1013.1
20260503043045 76 224 0.0 5.2 0.00 0.00 0.00 85 1013.1
20260503041511 77 248 0.9 3.5 0.00 0.00 0.00 85 1013.1
20260503040042 77 207 0.9 3.5 0.00 0.00 0.00 84 1013.0
20260503034515 77 195 0.9 3.5 0.00 0.00 0.00 84 1013.1
20260503033046 77 247 0.0 2.6 0.00 0.00 0.00 84 1012.9
20260503031525 77 209 0.0 3.5 0.00 0.00 0.00 82 1012.5
20260503030100 78 200 0.9 3.5 0.00 0.00 0.00 81 1012.5
20260503024529 78 215 0.9 3.5 0.00 0.00 0.00 80 1012.5
20260503023001 79 202 0.9 5.2 0.00 0.00 0.00 79 1012.5
20260503021537 79 214 0.9 5.2 0.00 0.00 0.00 78 1012.5
20260503020003 79 225 2.6 7.0 0.00 0.00 0.00 77 1012.3
20260503014537 79 209 2.6 7.0 0.00 0.00 0.00 75 1012.3
20260503013001 80 200 1.7 6.1 0.00 0.00 0.00 74 1012.1
20260503011543 80 198 0.9 6.1 0.00 0.00 0.00 72 1012.0
20260503010001 81 212 2.6 7.8 0.00 0.00 0.00 70 1011.9
20260503004535 82 211 2.6 6.1 0.00 0.00 0.00 68 1011.5
20260503003012 82 260 1.7 7.0 0.00 0.00 0.00 65 1011.4
20260503001544 83 228 2.6 9.6 0.00 0.00 0.00 63 1011.2
20260503000031 84 219 2.6 7.0 0.00 0.00 0.00 61 1011.1
20260502234601 85 226 1.7 6.1 0.00 0.00 0.00 59 1010.8
20260502233029 86 236 1.7 8.7 0.00 0.00 0.00 55 1010.5
20260502231502 88 224 2.6 7.0 0.00 0.00 0.00 52 1010.3
20260502230040 88 197 2.6 7.8 0.00 0.00 0.00 50 1010.1
20260502224514 90 325 1.7 9.6 0.00 0.00 0.00 46 1009.7
20260502223048 91 196 2.6 9.6 0.00 0.00 0.00 45 1009.6
20260502221522 92 238 3.5 11.3 0.00 0.00 0.00 43 1009.5
20260502220109 92 274 2.6 12.2 0.00 0.00 0.00 41 1009.3
20260502214535 92 205 3.5 12.2 0.00 0.00 0.00 42 1009.3
20260502213005 92 252 6.1 12.2 0.00 0.00 0.00 42 1009.2
20260502211542 93 226 3.5 11.3 0.00 0.00 0.00 42 1009.1
20260502210013 93 219 5.2 10.4 0.00 0.00 0.00 40 1009.0
20260502204549 92 227 4.3 13.9 0.00 0.00 0.00 41 1009.0
20260502203022 93 172 6.1 13.9 0.00 0.00 0.00 40 1009.1
20260502201557 93 207 3.5 13.9 0.00 0.00 0.00 43 1009.1
20260502200026 93 231 4.3 13.9 0.00 0.00 0.00 43 1009.3
20260502194600 93 231 4.3 12.2 0.00 0.00 0.00 42 1009.4
20260502193026 93 242 5.2 12.2 0.00 0.00 0.00 45 1009.5
20260502191604 93 248 5.2 15.6 0.00 0.00 0.00 44 1009.7
20260502190042 93 248 4.3 13.9 0.00 0.00 0.00 44 1009.9
20260502184503 93 192 3.5 13.0 0.00 0.00 0.00 47 1009.8
20260502183038 93 240 3.5 14.8 0.00 0.00 0.00 49 1009.9
20260502181514 92 201 4.3 15.6 0.00 0.00 0.00 48 1010.0
20260502163056 90 236 1.7 8.7 0.00 0.00 0.00 60 1010.4
20260502161605 90 225 4.3 12.2 0.00 0.00 0.00 62 1010.6
20260502151611 88 108 1.7 11.3 0.00 0.00 0.00 67 1011.0
20260502123006 80 87 0.9 9.6 0.00 0.00 0.00 87 1010.6
20260502121638 79 119 0.0 4.3 0.00 0.00 0.00 88 1010.9
20260502114510 76 118 1.7 4.3 0.00 0.00 0.00 90 1010.6
20260502113047 75 105 0.9 1.7 0.00 0.00 0.00 91 1010.7
20260502111507 74 130 0.9 2.6 0.00 0.00 0.00 92 1010.7
20260502110044 74 113 0.0 2.6 0.00 0.00 0.00 92 1010.7
20260502104514 74 96 0.0 1.7 0.00 0.00 0.00 92 1010.7
20260502103055 74 122 0.0 0.0 0.00 0.00 0.00 91 1010.7
20260502101528 74 122 0.0 0.0 0.00 0.00 0.00 91 1010.5
20260502100106 74 135 0.0 0.9 0.00 0.00 0.00 91 1010.6
20260502071517 71 240 0.0 0.0 0.00 0.00 0.00 88 1010.6
20260502070105 72 240 0.0 0.0 0.00 0.00 0.00 88 1010.8
20260502064520 72 240 0.0 0.0 0.00 0.00 0.00 87 1010.9
20260502063053 72 240 0.0 0.9 0.00 0.00 0.00 86 1011.0
20260502061520 73 240 0.0 0.9 0.00 0.00 0.00 85 1010.9
20260502060052 73 220 0.0 0.9 0.00 0.00 0.00 84 1011.0
20260502054533 74 193 0.0 0.9 0.00 0.00 0.00 83 1011.0